Flag for Germany Weather past 2 weeks in Emmendingen, Baden-Württemberg, Germany

Now
72 °F

Passing clouds.


Feels Like: 75 °F
Forecast: 54 / 75 °F
Wind: 6 mph from South

Location: Lahr - CAN-AFB

Current Time: Aug 29, 2014 at 4:49:56 PM

Latest Report: Aug 29, 2014 at 3:50 PM


Visibility: N/A

Pressure: 30.04 "Hg

Humidity: 69%

Dew point: 61 °F

Location of EmmendingenLocation

Historic Weather in Emmendingen — Graph

°F

Emmendingen temperature yesterday

Maximum temperature yesterday: 77 °F (at 4:50 PM)
Minimum temperature yesterday: 57 °F (at 7:20 AM)
Average temperature yesterday: 70 °F

Past Weeks' High & Low Weather Summary

 TemperatureHumidityPressure
High77 °F (Aug 28, 4:50 PM)100% (Aug 26, 6:20 PM)30.18 "Hg (Aug 26, 6:20 PM)
Low50 °F (Aug 21, 7:20 AM)40% (Aug 19, 5:20 PM)29.71 "Hg (Aug 26, 3:20 PM)
Average64 °F69%29.98 "Hg
* Reported Aug 14 2:20 PM — Aug 29 2:50 PM, Emmendingen, Weather by CustomWeather, © 2014

Note: Actual official high and low records may vary slightly from our data, if they occured in-between our weather recording intervals... More about our weather records

Advertising

Emmendingen weather history for previous 24 hours

 ConditionsComfort  
Time TempWeatherWind HumidityBarometerVisibility
2:50 PM
Aug 29
68 °FBroken clouds.7 mph88%30.04 "HgN/A
2:20 PM70 °FScattered showers. Partly sunny.7 mph78%30.07 "HgN/A
1:50 PM72 °FPartly sunny.5 mph78%30.04 "HgN/A
1:20 PM72 °FBroken clouds.5 mph73%30.04 "HgN/A
12:50 PM70 °FScattered clouds.3 mph73%30.07 "HgN/A
12:20 PM70 °FPassing clouds.2 mph78%30.07 "HgN/A
11:50 AM68 °FScattered clouds.2 mph83%30.07 "HgN/A
11:20 AM68 °FScattered clouds.2 mph78%30.07 "HgN/A
10:50 AM68 °FScattered clouds.2 mph83%30.07 "HgN/A
9:50 AM64 °FPartly sunny.6 mph94%30.07 "HgN/A
9:20 AM64 °FBroken clouds.3 mph94%30.07 "HgN/A
8:50 AM63 °FBroken clouds.6 mph94%30.07 "HgN/A
8:20 AM63 °FLight rain. Broken clouds.6 mph94%30.07 "HgN/A
7:50 AM63 °FLight rain. Broken clouds.6 mph94%30.07 "HgN/A
7:50 PM
Aug 28
73 °FPassing clouds.2 mph57%30.01 "HgN/A
7:20 PM75 °FPassing clouds.2 mph57%30.01 "HgN/A
6:50 PM73 °FPassing clouds.2 mph57%30.01 "HgN/A
5:50 PM77 °FPassing clouds.3 mph47%30.01 "HgN/A
5:20 PM75 °FPassing clouds.3 mph50%30.01 "HgN/A
4:50 PM77 °FPassing clouds.3 mph51%30.01 "HgN/A
4:20 PM75 °FPassing clouds.6 mph50%30.01 "HgN/A
Weather by CustomWeather, © 2014

See weather overviewHow to use our weather pages